Location: Chircca
(13.7944°S, 72.0608°W)
Time: 05:47:07
(UTC+00:00)

Cosmos 1733 - Pass Details

Date: 14 July 2020
Orbit: 506 x 521 km, 82.5° (Epoch: 14 August)

Event Time Altitude Azimuth Distance (km) Brightness Sun altitude
Exits shadow 09:18:09 40° 59° (ENE) 767 4.4 -27.1°
Drops below altitude 10° 09:21:00 10° 21° (NNE) 1,717 6.3 -26.4°
Sets 09:23:09 0° 15° (NNE) 2,594 7.2 -25.9°
